Weather History for PATA - February, 2013

Change the Weather History Date:

Thursday, February 21, 2013

  Actual Average Record
Temperature  
Mean Temperature -5 °F -  
Max Temperature -2 °F 5 °F 38 °F (1971)
Min Temperature -8 °F -18 °F -54 °F (1985)
Degree Days  
Heating Degree Days 70    
Moisture  
Dew Point -16 °F    
Average Humidity 60    
Maximum Humidity 65    
Minimum Humidity 54    
Precipitation  
Precipitation 0.00 in - - ()
Snow  
Snow 0.00 in - - ()
Snow Depth 14.00 in    
Sea Level Pressure  
Sea Level Pressure 29.52 in    
Wind  
Wind Speed 10 mph (East)    
Max Wind Speed 21 mph    
Max Gust Speed 29 mph    
Visibility 7 miles    
Events Snow    
Averages and records for this station are not official NWS values.
T = Trace of Precipitation, MM = Missing Value Source: NWS Daily Summary

Daily Weather History Graph

Daily Weather History Graph

Search for Another Location

Airport or City:

Trip Planner

Search our weather history database for the weather conditions in past years. The results will help you decide how hot, cold, wet, or windy it might be!

Date:

Astronomy

Feb. 21, 2013 Rise Set
Actual Time 8:45 AM AKST 5:59 PM AKST
Civil Twilight 7:54 AM AKST 6:51 PM AKST
Nautical Twilight 6:56 AM AKST 7:48 PM AKST
Astronomical Twilight 5:59 AM AKST 8:46 PM AKST
Moon 1:16 PM AKST (2/21) 7:07 AM AKST (2/21)
Length of Visible Light 10h 56m
Length of Day
9h 13m
Waxing Gibbous, 85% of the Moon is Illuminated
Feb 21
Waxing Gibbous
Feb 25
Full
Mar 4
Last Quarter
Mar 11
New
Mar 19
First Quarter

Hourly Weather History & Observations

Time (AKST) Temp. Windchill Dew Point Humidity Pressure Visibility Wind Dir Wind Speed Gust Speed Precip Events Conditions
12:52 AM -6.0 °F -18.6 °F -18.0 °F 56% 29.58 in 10.0 mi Variable 5.8 mph - N/A   Scattered Clouds
1:52 AM -7.1 °F -25.9 °F -18.0 °F 59% 29.58 in 10.0 mi East 11.5 mph - N/A   Clear
2:52 AM -8.0 °F -25.0 °F -18.9 °F 59% 29.58 in 10.0 mi ENE 9.2 mph - N/A   Clear
3:52 AM -8.0 °F -21.0 °F -18.9 °F 59% 29.57 in 10.0 mi ENE 5.8 mph - N/A   Overcast
4:52 AM -7.1 °F -22.8 °F -18.9 °F 56% 29.57 in 10.0 mi East 8.1 mph - N/A   Overcast
5:52 AM -7.1 °F -23.9 °F -18.0 °F 59% 29.57 in 10.0 mi East 9.2 mph - N/A   Overcast
6:52 AM -8.0 °F -16.9 °F -18.0 °F 61% 29.56 in 10.0 mi NNE 3.5 mph - N/A   Mostly Cloudy
7:52 AM -8.0 °F -16.9 °F -18.0 °F 61% 29.55 in 10.0 mi NNE 3.5 mph - N/A   Mostly Cloudy
8:52 AM -4.0 °F -20.2 °F -17.0 °F 54% 29.53 in 10.0 mi East 9.2 mph - N/A   Mostly Cloudy
9:52 AM -4.0 °F -24.5 °F -16.1 °F 56% 29.53 in 7.0 mi ENE 15.0 mph - N/A Snow Light Snow
10:52 AM -5.1 °F -25.1 °F -16.1 °F 59% 29.53 in 6.0 mi ENE 13.8 mph 21.9 mph N/A Snow Light Snow
11:09 AM -4.0 °F -24.5 °F -14.8 °F 60% 29.49 in 2.0 mi East 15.0 mph 25.3 mph N/A Snow Light Snow
11:26 AM -4.0 °F -25.2 °F -14.8 °F 60% 29.48 in 3.0 mi ENE 16.1 mph 25.3 mph N/A Snow Light Snow
11:52 AM -4.0 °F -24.5 °F -15.0 °F 59% 29.52 in 4.0 mi East 15.0 mph 27.6 mph N/A Snow Light Snow
12:52 PM -2.9 °F -23.8 °F -16.1 °F 54% 29.51 in 10.0 mi East 16.1 mph 23.0 mph N/A Snow Light Snow
1:52 PM -2.9 °F -23.1 °F -16.1 °F 54% 29.50 in 10.0 mi East 15.0 mph 28.8 mph N/A   Overcast
2:52 PM -2.9 °F -20.8 °F -15.0 °F 56% 29.50 in 10.0 mi East 11.5 mph 18.4 mph N/A Snow Blowing Snow
3:52 PM -2.9 °F -19.8 °F -15.0 °F 56% 29.49 in 10.0 mi East 10.4 mph 17.3 mph N/A Snow Blowing Snow
4:52 PM -4.0 °F -22.1 °F -15.0 °F 59% 29.49 in 9.0 mi East 11.5 mph - N/A Snow Blowing Snow
5:52 PM -4.0 °F -25.8 °F -15.0 °F 59% 29.49 in 4.0 mi East 17.3 mph 23.0 mph N/A Snow Light Snow
6:08 PM -5.8 °F -26.8 °F -14.8 °F 65% 29.46 in 2.5 mi East 15.0 mph 27.6 mph N/A Snow Light Snow
6:24 PM -5.8 °F -29.9 °F -14.8 °F 65% 29.46 in 3.0 mi East 20.7 mph 27.6 mph N/A Snow Light Snow
6:52 PM -5.1 °F -24.3 °F -15.0 °F 62% 29.49 in 4.0 mi East 12.7 mph 21.9 mph N/A Snow Light Snow
7:52 PM -6.0 °F -24.6 °F -15.0 °F 65% 29.50 in 4.0 mi East 11.5 mph 19.6 mph N/A Snow Light Snow
8:52 PM -6.0 °F - -15.0 °F 65% 29.51 in 7.0 mi Calm Calm - N/A Snow Light Snow
9:52 PM -6.0 °F -14.7 °F -15.0 °F 65% 29.52 in 6.0 mi East 3.5 mph - N/A Snow Light Snow
10:52 PM -6.0 °F -22.6 °F -15.0 °F 65% 29.52 in 4.0 mi ESE 9.2 mph - N/A Snow Light Snow
11:52 PM -6.0 °F -20.1 °F -15.0 °F 65% 29.53 in 8.0 mi East 6.9 mph - N/A   Overcast